• Join FlightAware (Why Join?)
  • Login
  • US Flag 
03:27AM EST


 

Airport Tracker/Info


-or-


 

Live Flight TrackerFlight Track Log ✈ CPT7773 ✈ 17-Oct-2013 ✈ KCOD - KCPR

Flight Track Log - Related Links

Times and Time Zones

All times are in EDT time to prevent confusion due to time zone crossing. See the CPT7773 flight status page for this flight to view local times or setup timezone preferences in your user account.

Time Position Orientation Groundspeed Altitude Reporting Facility
EDT Latitude Longitude Course Direction KTS MPH feet Rate Location/Type
07:47PM 44.5481 -108.9794 85° East 121 139 6,600  Level Salt Lake Center
07:48PM 44.5511 -108.9347 85° East 117 135 7,500 840 Climbing Salt Lake Center
07:49PM 44.5397 -108.8853 108° East 122 140 8,400 780 Climbing Salt Lake Center
07:50PM 44.5311 -108.8331 103° East 130 150 9,200 840 Climbing Salt Lake Center
07:51PM 44.5033 -108.7781 125° Southeast 138 159 10,200 780 Climbing Salt Lake Center
07:52PM 44.4747 -108.7369 134° Southeast 144 166 10,900 360 Climbing Salt Lake Center
07:53PM 44.4450 -108.6914 132° Southeast 150 173 11,000  Climbing Salt Lake Center
07:54PM 44.4117 -108.6400 132° Southeast 162 186 11,000  Level Salt Lake Center
07:55PM 44.3772 -108.5881 133° Southeast 173 199 11,000  Level Salt Lake Center
07:56PM 44.3436 -108.5344 131° Southeast 179 206 11,000  Level Salt Lake Center
07:57PM 44.3033 -108.4711 132° Southeast 182 209 11,000  Level Salt Lake Center
07:58PM 44.2681 -108.4192 133° Southeast 183 211 11,000  Level Salt Lake Center
07:59PM 44.2328 -108.3642 132° Southeast 186 214 11,000  Level Salt Lake Center
08:00PM 44.1975 -108.3094 132° Southeast 189 217 11,000  Level Salt Lake Center
08:01PM 44.1622 -108.2544 132° Southeast 190 219 11,000  Level Salt Lake Center
08:02PM 44.1194 -108.1900 133° Southeast 190 219 11,000  Level Salt Lake Center
08:03PM 44.0847 -108.1356 132° Southeast 189 217 11,000  Level Salt Lake Center
08:04PM 44.0492 -108.0808 132° Southeast 190 219 11,000  Level Salt Lake Center
08:05PM 44.0139 -108.0281 133° Southeast 189 217 11,000  Level Salt Lake Center
08:06PM 43.9789 -107.9747 132° Southeast 188 216 11,000  Level Salt Lake Center
08:07PM 43.9461 -107.9214 130° Southeast 186 214 11,000  Level Salt Lake Center
08:08PM 43.9117 -107.8514 124° Southeast 184 212 11,000  Level Salt Lake Center
08:09PM 43.8839 -107.7939 124° Southeast 182 209 11,000  Level Salt Lake Center
08:10PM 43.8553 -107.7381 125° Southeast 181 208 11,000  Level Salt Lake Center
08:11PM 43.8256 -107.6819 126° Southeast 181 208 11,000  Level Salt Lake Center
08:12PM 43.7964 -107.6247 125° Southeast 181 208 11,000  Level Salt Lake Center
08:13PM 43.7675 -107.5697 126° Southeast 180 207 11,000  Level Salt Lake Center
08:14PM 43.7378 -107.5133 126° Southeast 180 207 11,000  Level Salt Lake Center
08:15PM 43.7028 -107.4444 125° Southeast 181 208 11,000  Level Salt Lake Center
08:16PM 43.6739 -107.3875 125° Southeast 182 209 11,000  Level Salt Lake Center
08:18PM 43.6436 -107.3303 126° Southeast 183 211 11,000  Level Salt Lake Center
08:19PM 43.6139 -107.2736 126° Southeast 183 211 11,000  Level Salt Lake Center
08:20PM 43.5850 -107.2178 126° Southeast 182 209 11,000  Level Salt Lake Center
08:21PM 43.5567 -107.1611 125° Southeast 181 208 11,100  Climbing Salt Lake Center
08:22PM 43.5206 -107.0922 126° Southeast 182 209 11,100  Level Salt Lake Center
08:23PM 43.4900 -107.0358 127° Southeast 184 212 11,100 -60 Level Salt Lake Center
08:24PM 43.4586 -106.9808 128° Southeast 184 212 11,000  Descending Salt Lake Center
08:25PM 43.4278 -106.9264 128° Southeast 187 215 11,100  Climbing Salt Lake Center
08:26PM 43.3975 -106.8631 123° Southeast 180 207 11,100  Level Salt Lake Center
08:27PM 43.3556 -106.8306 151° Southeast 184 212 11,100 -420 Level Salt Lake Center
08:28PM 43.2964 -106.8128 168° South 193 222 10,300 -540 Descending Salt Lake Center
08:29PM 43.2428 -106.7983 169° South 199 229 10,100 -180 Descending Salt Lake Center
08:30PM 43.1878 -106.7783 165° South 188 216 10,000 -300 Descending Salt Lake Center
08:31PM 43.1383 -106.7622 167° South 189 217 9,500 -480 Descending Salt Lake Center
08:32PM 43.0892 -106.7447 165° South 190 219 9,100 -300 Descending Salt Lake Center
08:33PM 43.0403 -106.7417 177° South 192 221 9,000 -60 Descending Denver Center
08:34PM 42.9944 -106.7494 187° South 183 211 9,000  Level Denver Center
08:35PM 42.9444 -106.7600 189° South 172 198 9,000  Level Denver Center
08:36PM 42.9039 -106.7681 188° South 165 190 9,000  Level Denver Center